Temp
-17 -17 -17 -17 -17 -17 -17 -17 -17 -17 -17 -18 -17 -17 -16 -16 -16 -16 -16 -15 -15 -15 -15 -15 -15 -15 -15 -15 -14 -14 -14 -14 -14 -14 -14 -14 -15 -14
-19 -18 -18 -18 -18 -18 -17 -17 -17 -17 -17 -18 -18 -17 -17 -17 -17 -16 -16 -16 -16 -16 -16 -16 -16 -16 -15 -15 -15 -15 -15 -15 -15 -14 -15 -15 -15 -15
-20 -20 -19 -19 -19 -18 -18 -18 -18 -18 -18 -18 -19 -18 -18 -17 -17 -17 -17 -17 -17 -17 -17 -17 -17 -16 -16 -16 -16 -16 -15 -15 -15 -15 -15 -15 -15 -15
-20 -20 -20 -20 -20 -19 -19 -19 -19 -19 -18 -18 -18 -18 -18 -18 -18 -18 -18 -17 -17 -17 -17 -17 -17 -17 -17 -16 -16 -16 -16 -16 -16 -15 -15 -15 -15 -15
-21 -21 -21 -21 -21 -20 -20 -20 -20 -20 -19 -19 -19 -20 -20 -20 -19 -19 -19 -19 -19 -19 -19 -18 -18 -18 -18 -18 -17 -17 -17 -16 -16 -16 -16 -16 -15 -15
-23 -22 -22 -22 -22 -22 -21 -21 -21 -21 -21 -20 -20 -20 -20 -20 -20 -20 -20 -20 -20 -19 -19 -19 -19 -19 -19 -18 -18 -18 -18 -18 -17 -17 -16 -16 -16 -16
-24 -24 -24 -24 -24 -23 -23 -23 -23 -23 -22 -22 -21 -21 -21 -21 -21 -21 -21 -21 -21 -21 -20 -20 -20 -19 -19 -19 -19 -18 -18 -18 -18 -18 -17 -17 -17 -16
-25 -25 -25 -25 -24 -24 -24 -24 -24 -24 -23 -23 -23 -23 -23 -23 -23 -23 -23 -23 -23 -23 -22 -22 -21 -21 -21 -20 -20 -19 -19 -18 -18 -18 -18 -18 -17 -17
-26 -25 -25 -25 -25 -25 -25 -25 -25 -24 -24 -24 -24 -24 -24 -24 -24 -24 -24 -23 -23 -23 -23 -22 -22 -22 -22 -21 -21 -20 -20 -19 -19 -19 -18 -18 -18 -17
-26 -26 -26 -26 -26 -25 -25 -25 -25 -25 -25 -25 -24 -24 -24 -24 -24 -24 -24 -24 -24 -24 -24 -23 -26 -25 -25 -24 -23 -23 -22 -21 -21 -20 -19 -19 -18 -18
-26 -26 -26 -26 -26 -26 -26 -26 -26 -25 -25 -25 -25 -25 -25 -25 -26 -26 -25 -25 -25 -26 -28 -27 -28 -28 -28 -28 -28 -27 -27 -26 -25 -24 -23 -21 -19 -18
-27 -27 -27 -27 -28 -27 -27 -27 -27 -27 -27 -27 -26 -26 -27 -28 -28 -28 -28 -28 -28 -29 -30 -30 -29 -29 -29 -29 -29 -28 -28 -28 -28 -28 -27 -26 -26 -24
-30 -30 -30 -30 -30 -30 -30 -29 -29 -30 -29 -29 -30 -31 -31 -31 -30 -30 -30 -30 -30 -30 -30 -30 -30 -30 -30 -29 -30 -30 -30 -30 -30 -30 -30 -29 -29 -28
-33 -33 -33 -33 -33 -33 -33 -33 -32 -32 -32 -32 -32 -32 -32 -31 -31 -31 -30 -30 -30 -30 -30 -30 -30 -30 -30 -30 -30 -31 -31 -31 -32 -32 -32 -31 -30 -29
-35 -35 -35 -35 -35 -34 -34 -33 -33 -32 -32 -32 -32 -32 -32 -32 -32 -31 -31 -31 -30 -30 -30 -30 -30 -31 -31 -31 -31 -31 -32 -32 -32 -32 -32 -32 -31 -32
-36 -36 -36 -35 -35 -35 -34 -34 -33 -32 -32 -32 -32 -32 -32 -32 -32 -32 -32 -31 -31 -31 -31 -31 -31 -31 -32 -32 -32 -32 -33 -33 -33 -34 -34 -34 -33 -33
-36 -36 -36 -36 -36 -35 -35 -34 -34 -33 -32 -32 -31 -32 -32 -32 -33 -32 -32 -31 -31 -31 -31 -32 -32 -32 -32 -33 -33 -33 -33 -34 -34 -34 -35 -34 -34 -34
-37 -37 -37 -36 -36 -36 -35 -34 -33 -33 -32 -32 -32 -32 -33 -33 -33 -32 -31 -31 -31 -31 -32 -32 -33 -33 -33 -33 -34 -34 -34 -34 -35 -35 -35 -34 -34 -34
-37 -37 -37 -37 -36 -36 -35 -35 -34 -33 -33 -33 -33 -33 -33 -33 -33 -33 -32 -31 -31 -32 -32 -33 -33 -33 -33 -33 -35 -35 -34 -35 -35 -35 -35 -35 -34 -34
-37 -37 -37 -37 -37 -36 -35 -35 -34 -34 -33 -34 -34 -34 -34 -33 -33 -33 -32 -32 -32 -32 -33 -33 -33 -33 -33 -33 -33 -35 -36 -35 -35 -35 -35 -34 -34 -33
-37 -37 -37 -37 -37 -36 -36 -35 -35 -35 -34 -34 -34 -34 -34 -33 -33 -33 -33 -32 -32 -33 -33 -33 -33 -33 -33 -33 -33 -34 -35 -35 -35 -34 -34 -34 -33 -33
-37 -37 -37 -37 -36 -36 -36 -36 -36 -35 -35 -35 -34 -34 -34 -33 -33 -33 -33 -33 -33 -32 -33 -33 -33 -33 -33 -33 -33 -34 -34 -35 -35 -34 -34 -34 -33 -32
-38 -37 -37 -37 -36 -36 -36 -36 -36 -36 -35 -35 -35 -35 -35 -34 -34 -34 -33 -33 -33 -33 -33 -33 -33 -33 -33 -34 -33 -34 -34 -34 -35 -34 -34 -33 -33 -32
Height
5593 5595 5599 5602 5606 5609 5612 5616 5620 5623 5626 5624 5625 5627 5632 5635 5639 5644 5648 5653 5658 5662 5666 5671 5675 5680 5684 5689 5694 5699 5705 5710 5715 5719 5724 5730 5736 5742
5572 5575 5577 5580 5583 5586 5589 5592 5596 5599 5604 5601 5604 5606 5610 5612 5616 5621 5625 5629 5633 5639 5644 5649 5653 5658 5661 5666 5671 5677 5683 5689 5694 5700 5704 5709 5715 5721
5553 5555 5555 5558 5560 5562 5566 5569 5573 5576 5581 5581 5580 5582 5586 5589 5592 5596 5599 5604 5607 5612 5618 5624 5629 5634 5638 5643 5648 5653 5658 5665 5671 5677 5684 5689 5694 5700
5531 5533 5534 5536 5537 5539 5542 5544 5547 5549 5555 5558 5556 5559 5563 5564 5567 5571 5574 5578 5582 5586 5592 5597 5601 5606 5612 5618 5623 5627 5633 5639 5646 5653 5659 5670 5673 5679
5507 5510 5510 5513 5513 5516 5518 5520 5522 5524 5529 5533 5534 5534 5536 5538 5544 5546 5547 5551 5556 5560 5564 5569 5573 5579 5584 5589 5594 5600 5605 5612 5622 5626 5633 5641 5648 5657
5485 5486 5486 5487 5489 5491 5493 5495 5496 5499 5502 5507 5509 5509 5511 5511 5517 5519 5524 5527 5531 5533 5538 5542 5546 5552 5557 5559 5566 5571 5576 5583 5590 5597 5604 5612 5620 5629
5463 5464 5464 5465 5467 5468 5470 5471 5473 5476 5478 5481 5484 5484 5487 5486 5488 5491 5498 5499 5504 5507 5510 5512 5521 5525 5526 5528 5533 5538 5545 5551 5558 5566 5574 5582 5590 5599
5443 5443 5444 5445 5445 5447 5448 5449 5450 5453 5455 5457 5459 5461 5463 5463 5463 5466 5471 5475 5482 5477 5481 5491 5489 5495 5494 5495 5499 5505 5511 5518 5525 5531 5539 5547 5556 5566
5423 5422 5423 5423 5424 5426 5427 5428 5429 5430 5432 5435 5438 5439 5438 5439 5440 5441 5442 5450 5455 5451 5453 5468 5457 5465 5461 5465 5469 5473 5477 5482 5487 5493 5500 5508 5517 5528
5404 5404 5404 5404 5404 5405 5406 5407 5409 5410 5412 5414 5416 5415 5415 5417 5417 5415 5418 5425 5429 5425 5424 5441 5425 5435 5431 5435 5438 5438 5440 5443 5448 5454 5460 5467 5476 5486
5384 5384 5384 5384 5382 5383 5384 5386 5388 5390 5390 5391 5392 5392 5394 5394 5391 5389 5395 5398 5406 5401 5399 5408 5408 5406 5407 5413 5412 5409 5407 5408 5410 5412 5416 5422 5430 5440
5362 5361 5360 5361 5360 5360 5361 5363 5366 5366 5365 5367 5369 5370 5369 5368 5367 5368 5371 5376 5381 5384 5382 5383 5386 5380 5386 5391 5388 5386 5380 5380 5379 5378 5377 5380 5386 5389
5342 5340 5339 5339 5340 5339 5339 5340 5343 5342 5343 5346 5348 5348 5348 5348 5349 5350 5353 5358 5364 5368 5365 5364 5367 5363 5362 5370 5368 5364 5358 5356 5350 5348 5348 5349 5352 5352
5325 5323 5322 5322 5322 5321 5321 5323 5324 5325 5328 5329 5331 5332 5332 5332 5333 5335 5338 5341 5346 5350 5348 5346 5348 5343 5342 5346 5348 5341 5334 5332 5325 5323 5321 5322 5322 5323
5310 5310 5310 5309 5309 5309 5309 5310 5310 5312 5313 5314 5315 5317 5318 5319 5320 5321 5323 5326 5330 5333 5331 5329 5327 5324 5321 5322 5321 5320 5314 5313 5307 5300 5297 5294 5293 5293
5300 5300 5299 5299 5299 5299 5299 5298 5298 5298 5299 5300 5301 5302 5303 5305 5307 5306 5310 5312 5316 5317 5315 5313 5310 5306 5305 5302 5299 5299 5294 5291 5286 5279 5273 5270 5270 5273
5291 5290 5290 5290 5290 5290 5289 5288 5287 5287 5287 5287 5288 5289 5289 5291 5293 5294 5297 5299 5301 5302 5300 5297 5294 5290 5286 5284 5281 5278 5275 5271 5267 5262 5254 5253 5256 5257
5282 5282 5282 5281 5281 5281 5280 5278 5277 5277 5277 5276 5275 5275 5276 5278 5280 5281 5283 5285 5287 5286 5285 5282 5278 5275 5271 5269 5264 5261 5258 5255 5251 5246 5242 5240 5243 5245
5274 5274 5274 5273 5273 5272 5271 5269 5268 5267 5266 5265 5264 5264 5264 5266 5267 5269 5270 5271 5272 5272 5270 5268 5264 5261 5258 5256 5253 5245 5243 5241 5237 5234 5231 5230 5230 5234
5266 5266 5266 5265 5264 5263 5262 5261 5259 5258 5256 5256 5255 5254 5254 5254 5255 5257 5258 5258 5258 5258 5257 5254 5251 5246 5243 5241 5240 5239 5229 5226 5224 5223 5221 5219 5220 5225
5258 5258 5258 5257 5256 5255 5253 5252 5251 5249 5248 5247 5245 5245 5244 5244 5244 5245 5245 5245 5245 5245 5244 5242 5237 5233 5230 5227 5225 5225 5223 5215 5212 5211 5210 5209 5211 5215
5250 5250 5250 5249 5248 5247 5246 5244 5243 5241 5239 5238 5237 5235 5234 5233 5233 5233 5233 5233 5233 5232 5230 5228 5225 5221 5218 5214 5212 5211 5211 5207 5202 5199 5199 5200 5202 5205
5244 5244 5242 5241 5240 5239 5238 5236 5235 5232 5231 5230 5228 5226 5225 5223 5221 5221 5221 5221 5221 5220 5217 5215 5213 5209 5206 5203 5199 5198 5197 5195 5192 5189 5190 5189 5192 5196
Wind_Speed
71 72 72 73 73 74 75 75 74 73 71 74 76 77 77 78 79 80 80 81 82 84 84 85 86 86 86 85 85 84 82 80 80 80 79 76 73 71
72 73 73 75 77 78 79 79 79 79 77 75 77 79 81 82 82 81 81 82 83 85 86 87 89 89 89 89 89 90 88 86 83 84 84 84 81 78
72 73 75 77 79 79 80 79 79 80 79 78 78 79 80 82 82 83 84 84 84 84 84 85 87 89 91 91 91 91 91 90 87 87 89 88 85 85
76 76 77 77 77 78 79 80 79 78 78 78 80 82 82 84 85 85 86 86 87 88 89 90 90 90 90 91 92 93 93 92 91 91 93 92 91 90
76 77 77 78 78 79 80 79 78 78 76 76 76 79 80 80 82 84 87 89 89 90 91 92 93 93 94 95 96 97 99 99 97 97 96 96 96 96
75 76 77 78 77 77 77 77 77 77 77 76 77 78 79 81 82 83 84 86 88 90 90 91 93 93 95 97 97 98 99 100 100 100 101 100 99 98
68 69 69 70 71 72 73 74 76 77 77 78 79 81 81 81 82 84 85 85 87 88 90 92 94 95 98 100 101 102 103 103 103 103 104 104 105 104
59 60 61 62 63 64 66 68 71 71 71 71 73 75 75 76 76 77 78 79 79 85 87 87 91 92 95 99 102 105 108 109 109 110 109 109 109 109
58 59 59 60 60 61 61 62 62 64 65 65 65 67 69 73 75 76 78 80 81 84 86 84 90 92 95 97 100 103 106 108 111 113 114 116 116 115
55 57 58 59 60 60 61 62 63 64 65 66 67 70 73 75 78 81 81 80 81 83 84 81 80 80 85 89 91 94 99 104 109 113 117 121 122 123
60 61 62 62 63 64 65 65 65 66 67 69 71 73 74 75 76 79 79 78 74 70 68 70 66 66 68 70 72 75 80 85 92 98 106 115 124 128
62 62 62 63 63 64 66 67 66 66 68 68 69 69 66 65 66 67 65 63 60 56 56 58 58 64 63 61 65 70 76 80 84 87 91 95 101 110
58 57 58 59 59 58 58 60 60 60 61 61 57 53 53 54 54 55 54 53 50 49 52 55 56 60 62 61 63 66 70 72 76 79 80 82 84 90
47 47 47 47 47 48 48 48 47 48 46 45 45 46 48 50 51 51 51 50 48 46 50 53 54 58 61 61 59 60 63 65 68 70 73 76 77 77
38 37 37 39 40 40 40 40 41 42 42 43 45 46 47 48 48 50 50 48 47 48 51 52 53 55 57 57 57 57 57 56 60 65 69 71 67 65
32 32 34 34 34 34 34 36 37 38 39 40 42 44 45 45 45 46 45 47 48 48 50 50 51 54 53 54 55 52 51 50 53 58 60 59 56 56
27 27 28 29 29 29 30 31 32 33 33 34 35 37 40 41 42 41 42 44 45 45 46 47 49 50 50 49 50 49 46 46 49 49 49 50 49 47
23 23 23 23 23 23 24 25 25 26 29 31 33 34 35 37 37 38 40 42 42 43 43 45 46 46 47 45 46 45 45 43 42 43 44 46 43 41
21 21 21 21 22 22 23 22 23 25 26 27 28 30 31 33 34 35 37 39 40 41 41 43 43 43 43 42 41 45 43 40 40 40 41 43 42 39
22 22 22 22 23 23 23 21 22 24 25 26 27 28 30 32 33 34 36 38 39 39 40 40 40 41 41 40 37 35 40 41 39 38 38 41 40 38
23 22 22 21 21 22 22 22 22 23 24 25 26 27 30 31 33 34 36 37 37 38 39 38 40 42 41 40 37 33 33 38 40 38 36 39 37 39
22 21 22 22 21 19 21 22 23 24 24 24 25 26 29 30 31 33 34 34 35 37 37 38 39 40 39 40 38 34 31 33 38 39 36 36 37 39
21 20 20 20 20 20 21 22 23 24 25 24 25 26 26 27 30 30 31 34 34 35 37 38 39 39 39 39 39 35 33 32 34 38 36 36 36 39
Wind_Direction
260 261 262 262 263 264 264 264 263 261 260 259 259 258 257 256 255 254 252 251 251 250 250 250 250 249 249 248 248 247 248 251 252 254 253 251 251 250
261 261 263 265 266 266 266 265 265 264 264 264 262 261 261 260 259 257 255 253 252 251 250 249 249 249 249 249 248 247 247 248 250 251 252 252 252 252
262 264 264 265 266 266 266 266 266 265 265 264 263 263 263 261 261 260 259 258 258 257 254 251 249 248 248 248 248 249 248 248 249 249 249 249 251 252
266 265 266 266 267 267 268 269 268 266 264 263 262 262 262 263 262 262 261 259 259 258 257 256 255 252 250 249 248 249 249 249 249 249 247 246 247 249
264 264 264 265 266 266 266 266 265 265 264 263 261 259 259 258 258 257 257 257 256 255 254 253 253 252 252 252 250 249 249 249 249 248 248 247 246 246
266 265 265 265 264 264 262 261 259 259 259 259 258 256 255 256 257 255 255 255 254 254 253 253 253 253 252 251 252 251 250 249 249 248 247 246 245 246
267 265 265 264 264 263 262 261 260 259 258 257 256 256 256 255 255 254 253 253 253 253 253 254 254 254 254 253 252 251 251 251 251 250 248 247 246 245
266 266 266 265 264 264 264 263 263 262 260 259 258 258 258 257 256 256 255 254 254 255 254 255 256 255 255 255 255 254 253 252 251 250 249 248 247 246
268 267 266 266 265 264 264 263 263 263 263 263 262 261 260 260 260 259 259 259 259 260 260 258 260 259 259 258 257 257 256 254 253 251 249 248 246 245
270 270 270 269 268 267 266 266 264 264 263 261 260 259 260 261 262 262 261 261 261 261 262 260 259 259 260 261 261 261 260 260 259 257 254 251 249 247
272 272 271 270 269 269 268 267 266 265 264 264 263 263 263 262 261 262 262 262 261 260 259 260 260 262 262 263 265 265 265 263 261 259 257 255 252 249
274 274 273 271 270 269 268 267 266 265 263 263 263 263 262 260 260 260 258 257 257 255 258 263 262 266 266 269 268 267 267 267 265 264 263 259 255 252
274 273 273 272 270 269 268 267 266 264 263 262 261 259 258 257 256 257 257 256 256 255 261 266 267 268 271 269 272 273 271 269 269 268 266 262 259 257
273 272 271 271 270 268 266 265 263 262 261 258 257 256 256 257 258 258 259 259 255 257 266 272 271 272 274 276 277 272 270 269 268 267 267 266 264 258
270 268 267 266 266 267 267 265 263 261 259 258 256 255 255 256 258 260 258 255 257 264 270 276 275 276 279 280 277 273 272 267 268 269 269 267 261 252
267 266 264 264 265 266 266 265 264 262 260 258 258 257 257 254 256 256 254 256 260 267 273 275 276 279 280 279 278 278 274 271 271 274 273 265 257 252
262 261 262 262 262 263 264 264 263 265 265 263 262 260 257 255 254 252 252 257 263 269 273 274 277 281 281 280 280 280 275 275 276 276 269 262 256 253
259 257 255 258 262 265 270 273 269 268 268 268 267 264 258 253 250 251 254 260 266 270 272 274 277 281 281 280 282 280 276 276 276 272 265 260 255 248
263 262 264 269 273 275 277 280 278 276 277 276 274 268 262 257 254 255 259 264 267 269 271 274 279 280 279 279 278 283 279 276 275 269 262 258 254 243
264 266 269 273 276 279 280 282 282 280 279 278 276 272 268 262 259 259 260 263 264 267 271 275 279 281 282 281 279 278 282 276 274 268 261 256 251 243
269 268 268 271 274 276 280 285 285 282 281 281 277 274 270 266 263 261 261 260 261 265 269 273 277 281 283 283 282 280 277 276 274 269 260 254 248 242
269 272 274 275 272 275 280 283 286 286 283 281 281 280 276 271 267 264 262 258 262 267 271 273 275 278 282 284 284 280 274 271 270 268 264 252 245 239
264 265 270 278 285 287 286 284 284 285 284 281 280 280 280 276 271 268 264 263 264 268 272 274 276 278 279 281 283 282 276 269 265 263 262 257 242 238